CZ-3C DEB, 42477

Orbit data source: Space-Track

CZ-3C DEB, 42477 is space debris in HEO originally from a launch on Fri, 24 Feb 2012 UTC launched from the Xichang Space Center, China (XSC). Debris objects in space refer to the collection of defunct objects orbiting the Earth. Examples of debris include non-operational satellites, rocket bodies, and fragments generated from explosions, collisions, or faulty payload assembly.

Loading next visibility...
Identifier
42477, 2012-008AM
Orbit
HEO
Country
Flag of CNCN / PRC
Related business
Manufacturer
CALT
Mission
Spacecraft
Bus & Motor
Unknown
Mass
Unknown
Launch date (UTC)
2012-02-24 (14 years ago)
Launch vehicle
Unknown
Launch site
Xichang Space Center, China (XSC)
Object type
Payload
Rocket body
Debris
Shape & HBR
Unknown shape, 0.2 m
Radar Cross Section
Medium (>0.1 m² and <1 m²)

Expand to show TLE details & history
Last TLE update: 1 day ago

TLE from 1 day ago
0 CZ-3C DEB
1 42477U 12008AM  26119.20941906  .00000916  00000-0  22332-2 0  9995
2 42477  19.9562  49.0123 6900687 109.5060 332.6396  2.67162595104611
Epoch: 2026-04-29T05:01Z
TLE epoch observation values (Epoch: 2026-04-29T05:01:33.806Z)
Latitude
0.00003°
Longitude
116.37466°
Altitude
8,590.405 km
Speed
5.923 km/s
True Right ascension
03h 15m 45s
True Declination
0° 00' 00"
Sunlit
Object was in daylight at epoch
Visualization orbit readout
Latitude
Unknown
Longitude
Unknown
Altitude
Unknown
Speed
Unknown
Apparent Right ascension
Unknown
Apparent Declination
Unknown
Sunlit
N/A
Visualization observer readout
Local Sidereal Time
18:57:31
Azimuth
Unknown
Elevation
Unknown
Doppler factor
Unknown
Orbital elements
Apogee altitude
30,707.796 km
Perigee altitude
422.824 km
Semi-major axis
21,943.447 km
Eccentricity
0.69007
Inclination
19.9562°
RAAN
49.0123°
Arg. of periapsis
109.506°
True anomaly
250.52941°
Mean anomaly
332.6396°
Eccentric anomaly
297.60127°
Mean motion
0.66771 °/min
Orbital period
539.16 mins
BSTAR
0.0022332
Loading maneuver chart data...
Computing Atmospheric mass density...
Loading historical data...
Loading historical data...
Loading historical data...
Loading historical data...
Loading historical data...
Loading historical data...
Loading historical data...

Documentation

Showing up to 5 results
|